Cloud_Cover
100 100 74 50 32 4 0 0 0 0 0 54 98 72 2 5 7 10 10 0 0 0 2 5 5 7 4 1 4 18 23 10 5 3 5 2 59 48 5 5 8 5 4 4 5
36 15 4 5 3 3 0 0 0 0 0 1 100 100 8 31 92 81 0 0 0 0 0 0 5 5 34 5 2 0 6 96 36 10 5 5 6 32 9 4 44 9 74 51 42
95 64 37 58 3 0 0 0 0 0 0 0 36 100 34 26 77 1 0 0 0 0 0 0 0 0 0 12 65 5 17 5 6 46 51 90 43 5 72 97 5 20 100 100 67
100 38 99 100 100 100 44 2 0 0 0 0 0 100 26 34 0 0 0 0 0 0 0 0 0 0 0 0 1 97 24 5 5 1 38 20 85 11 73 89 5 100 100 100 100
84 100 100 76 64 100 96 5 0 0 0 0 0 64 66 59 24 0 0 0 0 0 0 0 0 0 0 0 0 0 17 58 5 3 11 5 0 5 4 8 5 3 23 100 100
63 28 100 65 50 92 93 100 82 1 0 0 0 13 98 44 0 0 0 0 0 0 0 0 0 0 0 0 0 0 0 0 4 13 6 92 23 1 59 4 0 1 5 24 58
5 5 4 10 1 8 2 1 10 33 0 0 0 88 100 3 0 0 0 0 0 0 0 0 0 0 0 0 0 0 0 0 0 0 5 6 96 52 97 23 5 0 0 5 5
7 5 4 0 0 0 0 0 0 0 0 0 3 87 100 0 0 0 0 0 0 0 0 0 0 0 0 0 0 0 0 0 0 0 0 0 12 64 98 100 100 14 0 5 5
21 5 3 0 0 0 0 0 0 0 0 0 92 14 14 0 0 0 0 0 0 0 0 0 1 2 2 4 4 5 4 0 0 0 1 0 0 5 100 100 100 100 53 5 3
5 5 0 0 0 0 0 0 0 0 1 0 30 78 4 0 0 0 0 0 0 0 1 3 2 4 5 5 16 3 3 0 32 4 5 5 2 0 23 100 94 85 99 99 70
5 5 1 0 0 0 0 8 19 19 10 98 98 62 1 0 0 0 0 0 0 0 4 5 6 9 5 0 0 0 41 11 77 29 56 5 1 0 0 6 96 100 100 100 97
7 3 0 0 0 0 0 4 7 96 100 3 6 90 88 99 99 70 1 0 0 0 2 64 10 3 0 21 61 5 56 50 71 41 5 5 0 0 0 0 1 100 100 99 100
4 0 0 0 0 1 0 30 18 5 48 1 0 0 0 100 26 94 5 18 2 3 5 23 2 2 4 78 100 34 5 5 5 14 5 3 1 0 0 0 0 0 63 100 67
0 0 0 0 20 5 4 5 5 74 100 3 2 2 0 0 58 71 58 3 34 84 69 87 6 71 70 10 90 90 26 17 5 5 5 0 5 0 0 0 0 0 4 0 9
3 0 0 4 23 95 68 25 5 76 68 44 24 0 2 0 49 1 98 95 49 100 92 8 28 87 10 36 100 42 5 5 5 5 5 2 5 0 0 0 0 0 0 0 5
0 0 0 4 17 99 100 84 29 75 41 85 83 22 72 88 98 25 97 100 98 100 100 68 98 98 99 100 46 1 4 5 5 5 22 4 4 4 0 2 0 0 0 0 4
0 0 0 5 12 90 27 5 100 93 51 58 92 74 82 100 100 100 60 100 66 99 81 100 100 100 100 98 5 5 2 59 76 96 34 8 5 2 1 0 0 0 0 0 5
0 0 3 5 14 8 5 14 63 34 93 80 100 100 70 51 93 100 27 53 100 48 94 57 96 100 98 55 44 5 7 12 87 63 99 96 20 0 0 0 0 2 3 0 0
0 0 2 5 5 76 7 76 63 100 100 21 100 100 100 100 96 100 100 91 64 85 55 99 96 100 66 48 12 5 43 5 33 74 82 7 0 0 0 0 0 2 5 5 5
0 2 3 5 9 81 62 41 83 100 75 69 100 40 92 100 96 100 100 100 96 88 100 74 92 100 100 48 73 5 5 17 41 70 86 4 4 5 3 37 5 5 5 5 6
0 4 0 4 9 71 100 90 98 88 95 59 100 64 79 100 100 100 100 100 100 98 97 100 100 100 99 94 70 10 5 5 5 41 74 64 12 5 89 59 24 40 55 86 40
3 26 0 4 25 96 90 100 34 5 29 5 100 96 100 100 100 100 100 100 100 100 100 100 100 100 100 75 100 96 23 6 90 40 49 73 18 5 5 2 1 2 53 91 64
72 15 0 5 77 60 85 100 99 88 29 73 61 95 99 100 96 100 100 100 100 100 100 100 100 100 95 99 88 75 5 5 5 45 97 99 5 5 5 5 5 5 48 97 100
90 56 5 33 19 84 100 100 100 98 77 36 9 17 98 100 77 98 100 100 100 100 100 100 99 98 70 69 70 58 33 53 37 74 16 23 5 39 5 5 12 65 99 91 100
35 72 78 73 22 92 100 100 100 99 47 5 9 52 48 100 100 99 100 100 100 100 100 100 100 82 38 6 5 5 5 5 6 5 25 5 5 5 5 5 34 89 82 100 100
50 14 12 19 5 82 100 100 99 100 100 81 73 90 100 100 100 100 100 100 99 100 100 100 100 56 5 5 5 5 5 5 19 89 91 75 9 5 7 58 100 100 100 100 100
8 69 89 11 10 42 100 100 100 100 100 100 100 100 99 94 100 100 100 100 100 100 100 100 93 70 76 85 22 5 10 5 5 6 26 79 7 99 100 100 100 94 100 100 98